Bettles, AK

4:33 PM AKST on December 13, 2019 (GMT -0900)
Bettles

Weather History for PABT - May, 2019

Change the Weather History Date:

Tuesday, May 28, 2019

  Actual Average Record
Temperature  
Mean Temperature 50 °F -  
Max Temperature 64 °F 61 °F 82 °F (2011)
Min Temperature 37 °F 38 °F -11 °F (1971)
Degree Days  
Heating Degree Days 14    
Moisture  
Dew Point 38 °F    
Average Humidity 57    
Maximum Humidity 93    
Minimum Humidity 25    
Precipitation  
Precipitation 0.00 in - - ()
Sea Level Pressure  
Sea Level Pressure 29.93 in    
Wind  
Wind Speed 3 mph (WSW)    
Max Wind Speed 14 mph    
Max Gust Speed 20 mph    
Visibility 10 miles    
Events      
Averages and records for this station are not official NWS values.
T = Trace of Precipitation, MM = Missing Value Source: NWS Daily Summary

Daily Weather History Graph

Daily Weather History Graph

Search for Another Location

Airport or City:

Astronomy

May. 28, 2019 Rise Set
Actual Time 3:06 AM AKDT 1:06 AM AKDT
Civil Twilight Sun does not rise Sun does not rise
Nautical Twilight Sun does not rise Sun does not rise
Astronomical Twilight Sun does not rise Sun does not rise
Moon 4:33 AM AKDT (5/28) 3:22 PM AKDT (5/28)
Length of Visible Light 24h 00m
Length of Day
21h 59m
Waning Crescent, 30% of the Moon is Illuminated
May 28
Waning Crescent
Jun 3
New
Jun 9
First Quarter
Jun 17
Full
Jun 25
Last Quarter

Hourly Weather History & Observations

Time (AKDT) Temp. Windchill Dew Point Humidity Pressure Visibility Wind Dir Wind Speed Gust Speed Precip Events Conditions
12:53 AM 45.0 °F 43.5 °F 39.9 °F 82% 29.88 in 10.0 mi Variable 3.5 mph - N/A   Partly Cloudy
1:53 AM 42.1 °F 39.2 °F 37.9 °F 85% 29.90 in 10.0 mi SE 4.6 mph - N/A   Mostly Cloudy
2:53 AM 45.0 °F 43.5 °F 37.9 °F 76% 29.90 in 10.0 mi SSE 3.5 mph - N/A   Partly Cloudy
3:53 AM 39.9 °F - 37.9 °F 93% 29.91 in 10.0 mi Calm Calm - N/A   Partly Cloudy
4:53 AM 37.9 °F - 36.0 °F 93% 29.91 in 10.0 mi Calm Calm - N/A   Partly Cloudy
5:53 AM 37.9 °F - 36.0 °F 93% 29.94 in 10.0 mi Calm Calm - N/A   Partly Cloudy
6:53 AM 43.0 °F - 39.0 °F 86% 29.95 in 10.0 mi Calm Calm - N/A   Mostly Cloudy
7:53 AM 48.0 °F - 39.9 °F 74% 29.95 in 10.0 mi Calm Calm - N/A   Scattered Clouds
8:53 AM 52.0 °F - 39.0 °F 61% 29.95 in 10.0 mi Calm Calm - N/A   Mostly Cloudy
9:53 AM 53.1 °F - 39.0 °F 59% 29.94 in 10.0 mi Calm Calm - N/A   Mostly Cloudy
10:53 AM 59.0 °F - 39.9 °F 49% 29.94 in 10.0 mi Calm Calm - N/A   Scattered Clouds
11:53 AM 60.1 °F - 39.0 °F 46% 29.94 in 10.0 mi Variable 3.5 mph - N/A   Mostly Cloudy
12:53 PM 61.0 °F - 39.0 °F 44% 29.93 in 10.0 mi Variable 3.5 mph - N/A   Mostly Cloudy
1:53 PM 61.0 °F - 36.0 °F 39% 29.94 in 10.0 mi SW 6.9 mph - 0.00 in   Mostly Cloudy
2:53 PM 62.1 °F - 37.0 °F 39% 29.94 in 10.0 mi Variable 4.6 mph - N/A   Mostly Cloudy
3:14 PM 62.1 °F - 37.9 °F 41% 29.92 in 10.0 mi WSW 12.7 mph 17.3 mph N/A   Mostly Cloudy
3:53 PM 63.0 °F - 36.0 °F 37% 29.94 in 10.0 mi West 11.5 mph 17.3 mph N/A   Mostly Cloudy
4:53 PM 62.1 °F - 39.0 °F 43% 29.94 in 10.0 mi NW 5.8 mph - N/A   Mostly Cloudy
5:53 PM 60.1 °F - 37.9 °F 44% 29.95 in 10.0 mi West 13.8 mph 19.6 mph N/A   Mostly Cloudy
6:53 PM 63.0 °F - 37.9 °F 40% 29.94 in 10.0 mi Calm Calm - N/A   Mostly Cloudy
7:53 PM 61.0 °F - 36.0 °F 39% 29.94 in 10.0 mi Calm Calm - N/A   Mostly Cloudy
8:53 PM 61.0 °F - 37.9 °F 42% 29.94 in 10.0 mi West 8.1 mph - N/A   Mostly Cloudy
9:53 PM 60.1 °F - 37.9 °F 44% 29.94 in 10.0 mi WSW 6.9 mph - N/A   Mostly Cloudy
10:53 PM 59.0 °F - 37.9 °F 46% 29.94 in 10.0 mi SW 4.6 mph - N/A   Scattered Clouds
11:53 PM 55.0 °F - 39.9 °F 57% 29.96 in 10.0 mi WSW 3.5 mph - N/A   Scattered Clouds